Simultaneous Nadir Overpasses (SNOs) Predictions

Prediction of SNOs between GOES-17 and METOP-B Satellite Orbit:

Table of predicted SNOs for the next 14.0 days since TLE Epoch: 8/2/2025
Index Date Time (GOES-17) GOES-17 Lat,Lon METOP-B Lat,Lon Distance(km) Time Diff (sec)
1 08/03/2025 14:48:34 -0.02, -89.51 -0.64, -86.74 315.67 80
2 08/05/2025 03:10:17 0.01, -89.49 -0.41, -91.36 213.35 80
3 08/06/2025 02:46:59 0.02, -89.49 0.73, -86.39 353.74 80
4 08/07/2025 15:08:32 -0.00, -89.51 0.32, -90.98 166.81 80
5 08/08/2025 14:45:15 -0.02, -89.51 -0.82, -86.00 400.19 80
6 08/10/2025 03:06:57 0.01, -89.50 -0.23, -90.63 128.49 80
7 08/11/2025 02:43:39 0.02, -89.50 0.85, -85.65 439.06 80
8 08/12/2025 15:05:13 -0.00, -89.54 0.13, -90.25 80.37 80
9 08/13/2025 14:41:55 -0.02, -89.54 -0.96, -85.26 487.17 80
10 08/15/2025 03:03:37 -0.00, -89.53 -0.09, -89.89 41.08 80
